Temperature
21 21 21 20 20 20 22 24 25 25 24 24 24 23 22 22 21 20 20 20 20 20 20 20 20 20 20 20 19 19 19 19 19 19 19 19 19 19 18 19 19 19 19 19 19 18 18 18 18
21 21 20 20 20 21 23 25 25 25 25 24 24 23 22 21 20 20 19 20 20 20 20 20 20 20 20 19 19 19 19 19 19 19 19 19 19 19 18 19 19 19 19 19 19 18 18 18 18
21 21 21 20 21 22 24 25 25 25 25 25 24 23 22 21 20 20 20 20 21 20 20 20 20 20 20 20 20 19 19 19 19 19 19 19 19 19 18 18 18 19 19 19 19 18 18 18 18
22 21 21 21 22 24 25 25 26 26 25 24 23 22 22 21 21 21 20 21 21 21 20 20 20 20 20 20 20 19 19 19 19 19 19 19 19 19 19 19 19 19 19 19 19 18 18 18 18
22 22 21 22 23 25 26 26 26 25 25 24 23 22 21 21 21 21 21 21 21 21 20 20 20 20 20 20 19 19 19 19 19 19 19 19 19 19 19 19 19 19 19 19 19 18 18 18 18
23 22 21 22 24 26 27 26 25 25 24 23 23 22 21 21 21 21 21 21 21 21 20 20 20 20 20 20 20 19 19 19 19 19 19 19 19 19 19 18 19 19 18 18 18 18 18 18 18
23 21 22 24 24 26 26 26 25 25 24 24 23 21 21 21 21 21 21 21 21 21 20 20 20 20 20 20 19 19 19 19 19 19 19 19 19 19 19 19 19 19 19 18 18 18 18 18 18
24 22 23 24 25 26 27 27 26 25 25 24 23 22 21 21 21 21 21 21 21 20 20 20 20 20 20 19 19 19 19 19 19 19 19 19 19 18 18 18 18 19 19 18 18 18 18 18 18
25 22 23 24 25 26 27 26 26 26 25 24 23 23 22 21 21 21 21 20 20 20 20 20 20 20 20 19 19 19 19 19 19 19 19 19 18 18 18 18 18 18 18 18 18 19 18 18 18
24 22 24 26 26 26 27 26 26 25 24 23 23 22 22 22 21 21 21 20 20 20 20 20 20 20 19 19 19 19 19 19 19 19 19 19 18 18 18 18 18 18 18 18 19 19 18 18 18
25 24 26 27 27 27 27 26 26 24 23 23 22 22 22 22 21 21 21 21 20 20 20 20 20 20 19 19 19 19 19 19 19 19 19 18 18 18 18 18 18 18 18 19 19 19 18 18 18
26 26 27 27 27 27 27 26 25 25 24 24 23 23 22 22 21 21 21 21 21 20 20 20 20 20 19 19 19 19 19 19 19 19 18 18 18 18 18 18 18 18 18 19 18 18 18 18 18
26 27 28 28 28 28 27 26 26 24 24 23 23 22 22 22 22 21 21 21 21 20 20 20 20 20 19 19 19 19 19 19 19 19 18 18 18 18 18 18 18 18 18 18 18 18 18 18 18
27 27 28 27 28 28 27 26 25 24 24 23 23 22 22 22 22 21 21 21 21 20 20 20 20 20 19 19 19 19 19 19 19 18 18 18 18 18 18 18 18 18 18 18 18 18 18 18 18
28 26 27 27 27 27 27 25 25 24 24 23 23 22 22 22 22 22 21 21 21 21 20 20 20 20 19 19 19 19 19 19 19 18 18 18 18 18 18 18 18 18 18 18 18 18 18 18 18
26 25 25 27 27 27 26 23 24 24 24 23 23 22 22 22 22 22 21 21 21 21 20 20 20 19 19 19 19 19 19 19 19 18 18 18 18 18 18 18 18 18 18 18 18 18 18 18 18
25 24 25 26 27 27 25 23 24 24 24 23 23 23 22 22 22 22 21 21 21 21 20 20 20 19 19 19 19 19 19 19 19 19 18 18 18 18 18 18 18 18 18 18 18 18 18 18 18
24 25 26 26 26 26 25 24 24 24 24 23 23 23 22 22 22 22 21 21 21 21 20 20 20 19 19 19 19 19 19 18 18 18 18 18 18 18 18 18 18 18 18 18 18 18 18 18 18
26 26 26 27 27 26 25 24 24 24 24 23 23 23 22 22 22 22 21 21 21 21 20 20 20 20 19 19 19 19 19 18 18 18 18 18 18 18 18 18 18 18 18 18 18 18 18 18 18
27 26 26 26 27 26 25 24 25 24 24 24 23 23 22 22 22 22 21 21 21 20 20 20 20 20 19 19 19 19 18 18 18 18 18 18 18 18 18 18 18 18 18 18 18 18 18 18 18
27 26 26 26 26 26 25 24 24 24 24 24 24 23 23 22 22 21 21 21 21 20 20 20 20 19 19 19 19 18 18 18 18 18 18 18 18 18 18 18 18 18 18 18 18 18 18 18 18
26 28 28 27 25 23 24 22 23 23 23 23 23 23 22 22 22 21 21 21 21 20 20 20 20 19 19 19 18 18 18 18 18 18 18 18 18 18 18 18 18 18 18 18 18 18 18 18 18
28 28 28 27 25 23 23 22 22 22 22 22 23 23 22 22 22 21 21 21 21 20 20 20 20 19 19 19 18 18 18 18 18 18 18 18 18 18 18 18 18 18 18 18 18 18 18 18 18
28 27 26 24 22 22 23 22 22 22 22 23 23 23 23 22 22 21 21 21 20 20 20 20 19 19 19 19 18 18 18 18 18 17 17 17 18 18 18 18 18 18 18 18 17 17 17 17 18
27 24 23 23 21 22 22 22 22 23 23 23 23 23 23 22 22 21 21 20 20 20 20 20 19 19 19 19 18 18 18 17 17 17 17 17 17 17 18 17 17 17 17 17 17 17 17 17 17
27 24 23 23 22 21 22 22 22 24 24 24 24 23 23 22 22 21 21 21 20 20 20 20 19 19 19 19 18 18 18 17 17 17 17 17 17 17 17 17 17 17 17 17 17 17 17 17 17
27 25 23 22 22 21 21 22 23 23 23 23 23 23 22 22 21 21 21 21 20 20 20 20 20 19 19 19 18 18 18 17 17 17 17 17 17 17 17 17 17 17 17 17 17 17 17 17 17
27 25 22 21 22 21 21 22 21 22 22 22 22 22 22 22 21 21 21 20 20 20 20 19 19 19 19 18 18 18 18 18 17 17 17 17 17 17 17 17 17 17 17 17 17 17 17 17 17
26 25 22 20 20 20 21 21 23 22 22 22 22 22 22 22 21 21 21 20 20 20 19 19 19 19 18 18 18 18 18 17 17 17 17 17 17 17 17 17 17 17 17 17 17 16 16 16 17
26 25 22 22 21 19 20 21 23 22 22 22 22 22 22 22 21 21 20 20 20 19 19 19 19 18 18 18 18 18 18 17 17 17 17 17 17 16 16 16 16 16 16 16 16 16 16 16 16
Wind_Speed
10 8 4 1 1 3 3 2 5 7 6 8 11 11 10 7 5 6 4 8 10 9 10 13 14 15 15 15 15 16 15 15 14 14 14 14 14 14 14 14 13 13 13 12 12 12 12 11 11
7 5 2 1 3 3 2 4 9 10 11 11 12 12 10 8 7 8 5 9 11 10 10 13 15 15 15 15 15 15 15 14 14 14 14 13 13 13 13 13 12 12 12 12 11 11 10 10 10
5 4 1 2 1 3 4 6 11 12 11 9 7 7 6 6 8 6 7 12 10 9 10 13 16 15 15 15 14 14 14 14 14 13 13 12 12 12 12 11 11 11 11 11 10 9 9 9 9
2 1 1 2 1 1 5 9 11 12 10 9 9 7 4 5 6 9 13 13 12 9 10 13 16 15 15 14 14 14 14 13 13 12 12 12 12 11 11 10 9 9 9 9 9 8 8 7 7
1 2 3 2 1 2 7 10 10 11 7 9 11 8 5 5 13 15 14 12 12 9 9 13 16 15 14 14 14 13 13 13 12 12 11 11 11 10 10 9 9 8 8 8 8 7 7 6 5
1 2 2 2 3 4 7 11 11 14 13 11 11 9 5 8 13 14 13 11 11 11 9 11 14 15 14 14 13 13 12 12 11 11 11 10 10 9 9 8 8 7 7 7 6 6 6 6 4
2 2 1 2 4 6 7 8 10 11 11 8 9 7 6 7 11 13 12 11 10 10 9 8 11 12 13 13 12 12 12 11 11 11 11 10 9 8 7 7 6 6 7 7 6 6 5 4 4
3 2 1 1 4 5 7 8 9 10 9 10 7 8 7 9 11 12 11 10 9 8 8 7 8 9 9 10 12 11 11 11 10 10 9 9 8 7 6 6 5 6 7 7 6 6 5 5 4
3 3 1 3 4 4 7 11 8 8 11 6 6 7 11 15 14 13 10 8 8 8 6 6 7 7 8 9 10 10 10 10 9 8 9 7 5 4 4 5 5 6 7 6 6 5 5 5 5
4 3 5 4 4 5 7 11 9 8 11 9 10 11 14 14 14 13 12 10 9 8 7 6 7 7 7 8 8 7 7 7 6 5 5 5 4 4 4 4 4 5 5 5 6 6 5 5 5
3 5 4 3 5 6 7 8 7 11 8 10 15 15 14 13 12 12 11 11 10 9 8 6 6 6 6 5 6 5 5 5 5 5 5 4 3 2 2 2 2 3 4 4 4 4 4 4 4
2 2 3 4 5 6 7 8 8 8 9 12 15 16 14 13 12 11 11 10 9 9 8 7 6 5 5 5 5 5 4 4 3 4 4 3 1 1 1 2 2 2 3 3 3 3 4 5 5
2 1 2 3 4 7 10 11 10 9 12 13 13 12 12 12 10 9 9 9 9 8 7 7 6 5 5 5 4 5 4 4 4 4 4 3 2 1 1 1 2 2 3 3 2 3 3 3 3
2 0 1 3 4 6 11 8 8 10 14 14 12 10 10 11 11 9 9 8 8 8 8 7 6 6 6 5 4 4 4 5 4 4 4 4 3 2 1 1 1 2 3 3 3 3 2 2 2
1 2 3 1 3 5 8 6 7 13 14 13 12 10 10 9 10 11 11 10 9 8 7 7 7 6 5 5 4 4 4 4 3 4 4 4 3 3 2 1 1 2 2 2 2 1 1 1 1
3 3 1 2 2 3 8 5 6 11 13 12 10 10 9 9 9 9 10 10 9 9 8 7 7 6 5 4 3 3 4 4 3 3 3 3 3 3 2 1 1 1 1 1 1 1 0 0 0
3 1 2 2 1 3 6 5 7 9 10 11 10 9 9 8 7 8 10 10 10 9 8 6 5 6 5 3 3 3 3 3 3 3 2 2 2 2 2 1 1 1 0 0 1 1 1 1 1
4 2 3 3 2 4 6 6 9 11 11 11 10 9 9 10 9 9 10 10 9 9 8 7 5 5 4 3 3 2 2 2 2 2 2 2 2 2 1 1 1 1 0 0 0 1 1 1 1
6 3 3 4 2 3 5 6 9 10 9 9 9 9 9 9 8 9 9 9 9 7 7 7 6 5 4 3 2 2 2 2 1 2 3 3 2 2 2 1 1 1 1 1 1 1 0 1 0
4 3 4 2 2 3 5 5 6 7 10 11 12 12 11 9 7 9 9 9 9 9 8 7 6 5 4 3 3 2 2 2 2 1 2 3 2 2 2 2 1 1 1 1 1 1 1 1 1
5 6 5 4 1 3 5 2 2 3 5 7 8 8 9 11 11 10 9 9 9 8 8 8 6 6 5 4 2 1 1 1 0 1 1 2 3 2 2 2 1 0 1 2 2 2 2 2 1
6 6 6 5 3 2 4 2 3 3 3 4 6 7 8 9 10 10 10 9 9 8 7 7 6 6 5 5 4 4 3 2 3 2 1 1 2 3 3 2 1 1 1 1 2 2 2 2 2
7 6 4 3 3 2 1 3 5 1 2 4 5 8 9 9 11 11 11 10 9 8 7 7 6 5 4 4 5 4 3 3 2 1 1 2 2 2 2 2 2 2 1 1 1 2 2 2 3
2 2 4 4 5 1 3 3 4 3 6 6 6 8 10 10 10 10 9 8 7 7 7 6 6 5 5 5 5 5 4 3 2 2 2 2 2 2 2 2 2 2 2 2 2 2 2 2 2
3 5 3 4 4 3 3 2 5 5 6 9 10 10 10 10 10 9 9 9 9 9 8 7 7 6 5 5 5 5 5 4 4 3 3 2 2 2 3 3 2 2 3 2 2 2 2 2 2
3 8 7 4 4 3 2 3 5 3 2 4 7 9 9 9 9 10 11 11 11 11 9 8 7 6 6 6 5 5 5 4 3 3 3 3 3 3 2 2 2 2 2 2 2 2 2 1 2
1 2 7 7 3 1 2 3 5 2 2 2 4 7 8 9 9 9 8 10 10 10 9 9 8 6 6 6 5 4 4 4 3 3 2 2 3 2 1 1 1 2 2 2 1 1 2 1 1
4 4 5 5 4 1 2 3 4 4 2 1 3 6 7 7 7 7 7 7 7 8 7 6 6 6 5 5 5 5 5 4 3 3 3 2 3 2 1 2 2 1 2 2 1 2 2 1 2
0 2 4 4 5 6 3 5 5 7 6 5 5 5 7 8 7 7 6 6 6 6 6 6 6 5 5 5 5 5 4 4 4 3 3 3 2 2 2 2 2 2 2 2 1 1 1 2 2
4 4 5 4 2 4 4 6 4 5 5 6 5 5 5 7 7 6 6 5 5 4 5 5 5 5 5 5 5 5 4 4 4 3 3 3 2 1 2 2 2 2 2 2 1 2 2 2 2
Wind_Direction
172 168 169 187 23 48 74 102 103 88 70 71 78 82 81 68 96 125 151 139 133 138 142 136 130 127 126 123 121 120 119 118 118 117 119 119 121 124 125 126 131 134 135 137 141 143 142 142 142
165 172 183 52 64 70 63 102 91 93 118 109 84 80 77 71 85 112 122 137 135 136 137 135 133 130 129 126 124 124 122 121 119 119 119 119 121 125 127 127 131 135 138 141 144 147 149 149 147
177 194 170 50 66 130 127 115 109 106 110 96 87 67 73 100 112 130 143 139 131 129 135 137 135 133 132 131 130 128 127 124 123 123 122 124 124 125 127 129 134 140 143 144 148 153 155 157 155
183 149 36 49 52 148 132 129 121 111 92 82 94 75 70 101 126 137 140 137 130 129 137 139 137 134 135 135 133 133 131 129 128 127 127 127 128 129 132 135 138 143 148 150 155 159 158 152 153
162 85 48 35 40 96 122 124 118 108 96 95 97 99 88 89 119 131 140 140 136 136 137 140 139 138 138 137 134 133 133 132 132 131 130 130 130 131 132 133 137 145 153 159 158 160 164 157 154
73 67 66 74 96 93 108 119 108 103 112 109 104 107 106 125 128 140 141 140 140 142 138 138 140 140 140 139 139 139 137 137 138 139 138 135 134 134 137 139 144 149 152 153 157 157 163 163 152
121 88 127 108 103 104 110 114 113 121 120 119 122 108 125 140 140 140 138 137 136 139 140 142 144 145 146 146 145 144 143 143 143 145 144 143 140 140 144 148 156 164 164 167 171 168 170 175 182
158 90 29 73 109 108 113 106 119 124 116 126 123 125 149 157 142 133 131 133 133 137 142 148 148 149 151 151 152 150 146 145 149 150 148 145 146 150 152 158 164 167 171 177 181 184 192 201 202
133 96 185 187 137 130 114 104 103 97 109 112 108 126 143 144 135 127 125 124 132 137 144 150 150 152 153 157 157 154 148 148 149 154 155 155 157 166 176 176 175 176 178 183 190 201 214 219 215
142 152 209 201 166 142 122 118 119 101 97 96 102 114 130 136 137 136 139 142 145 149 152 150 148 149 154 159 156 157 152 149 143 142 150 155 161 179 188 196 191 185 189 198 207 213 223 234 230
160 178 195 185 159 142 129 124 115 120 116 138 140 142 143 137 138 142 147 150 154 157 158 157 156 156 154 146 148 151 146 141 137 137 138 140 145 164 189 211 231 223 213 220 226 237 240 241 237
146 217 190 172 155 138 135 132 115 120 145 148 144 148 144 144 149 152 152 154 151 146 149 155 156 151 150 145 145 149 145 141 143 146 148 139 136 146 190 203 220 216 224 228 233 240 245 245 239
59 6 73 122 139 134 124 128 124 123 133 135 135 139 148 152 152 152 151 149 144 144 149 149 147 146 145 138 146 141 145 150 156 156 163 159 154 172 189 205 217 222 222 223 223 236 238 236 229
205 267 27 90 115 113 115 116 112 135 135 133 135 142 153 156 155 151 149 148 150 153 153 151 147 144 137 133 140 146 154 159 165 176 184 183 181 170 168 198 204 218 223 229 224 227 227 229 216
117 28 358 35 114 134 109 90 127 148 140 142 149 155 152 154 155 156 161 158 158 158 149 150 149 143 137 137 145 146 155 158 165 187 192 189 192 188 170 171 204 235 230 220 217 222 208 215 216
19 39 352 278 134 146 110 132 147 147 146 150 156 158 152 158 162 158 158 157 155 151 148 155 152 144 140 141 143 149 151 154 177 195 204 203 194 188 173 177 229 248 203 182 178 167 137 260 264
26 31 272 288 201 130 110 151 167 153 157 161 165 165 157 158 159 157 158 156 154 151 150 150 143 146 148 144 142 146 151 157 177 186 204 218 210 199 180 208 252 270 38 249 219 160 167 175 256
230 239 261 254 223 125 129 165 168 162 166 172 169 164 161 167 170 163 159 156 153 151 149 149 146 153 149 131 121 118 132 157 177 188 202 200 208 202 190 217 250 241 176 281 220 186 182 196 233
182 188 242 255 215 124 153 165 174 174 170 169 168 170 170 174 169 158 156 155 152 153 154 158 155 165 155 143 144 150 172 176 172 198 200 189 200 201 191 233 255 232 199 223 214 169 197 287 119
191 210 243 253 194 136 146 161 180 179 185 179 177 181 177 172 164 164 161 160 162 166 168 166 169 172 171 170 169 170 165 172 182 208 208 194 199 217 215 212 231 227 207 264 250 156 158 268 162
230 204 220 209 28 84 118 51 205 185 180 180 183 177 170 173 170 169 168 167 167 171 172 171 173 173 174 166 146 133 87 58 83 257 264 238 211 223 233 226 201 176 188 222 231 197 190 227 258
240 228 209 192 141 222 157 169 262 204 175 180 182 175 169 171 169 167 168 169 172 176 172 165 168 168 169 162 159 162 168 190 217 217 224 244 221 224 226 227 196 199 197 218 237 214 203 196 245
221 221 200 180 135 96 32 134 276 203 195 213 195 178 175 172 173 177 177 176 172 167 166 167 166 169 170 169 170 167 183 198 209 203 219 249 260 240 222 220 221 213 217 220 238 245 225 209 212
198 48 29 51 77 61 257 155 258 223 213 210 201 186 181 175 172 176 175 166 165 166 166 167 170 181 180 175 176 172 177 176 174 203 219 252 262 264 249 222 224 227 219 224 234 238 229 224 218
67 82 29 358 17 254 261 147 244 236 216 203 194 187 180 172 168 168 167 166 169 172 175 175 175 185 186 183 186 184 184 180 189 201 208 220 245 258 259 244 228 234 239 234 221 223 238 234 227
234 143 160 198 211 253 312 220 252 229 219 196 181 170 162 163 169 171 175 175 177 178 179 179 183 190 187 184 191 189 185 186 195 199 204 214 224 235 240 224 225 235 243 246 227 228 239 232 229
189 202 173 149 153 127 286 285 304 327 57 84 142 147 156 161 164 170 173 175 177 178 182 184 186 188 188 187 186 186 187 188 193 197 201 220 233 237 223 202 217 241 247 244 224 239 250 243 228
169 161 86 107 142 182 266 251 244 260 240 159 142 146 156 158 156 158 158 160 171 175 177 177 178 188 192 188 188 189 192 191 192 188 204 218 231 235 214 220 227 247 254 248 232 247 251 242 247
28 58 106 113 143 156 210 258 225 216 199 169 165 162 163 161 161 155 150 156 163 167 171 174 178 181 188 191 192 192 194 197 195 202 215 221 223 221 218 221 224 240 253 244 219 243 237 242 256
154 171 142 149 222 162 165 251 249 185 178 162 161 155 159 154 152 149 148 147 148 153 166 177 180 182 192 189 185 190 189 188 198 212 225 220 216 213 216 218 233 242 252 250 220 245 258 244 252
Height
1505 1505 1505 1507 1508 1513 1512 1503 1495 1495 1496 1497 1496 1497 1501 1505 1510 1518 1516 1514 1515 1515 1515 1516 1516 1516 1517 1517 1518 1518 1519 1520 1520 1521 1522 1522 1522 1523 1524 1524 1525 1526 1527 1528 1530 1531 1532 1533 1534
1505 1505 1507 1507 1512 1522 1514 1500 1498 1496 1498 1498 1499 1501 1503 1508 1510 1512 1514 1516 1516 1516 1516 1517 1518 1518 1518 1519 1519 1520 1521 1521 1522 1523 1523 1524 1524 1524 1525 1525 1526 1527 1528 1529 1530 1531 1533 1534 1535
1506 1506 1508 1508 1513 1518 1511 1500 1497 1498 1498 1497 1501 1504 1507 1511 1512 1513 1515 1516 1517 1517 1518 1518 1519 1519 1520 1520 1521 1522 1522 1523 1524 1524 1525 1525 1525 1526 1527 1527 1527 1528 1529 1530 1531 1532 1533 1535 1536
1506 1508 1509 1512 1513 1505 1500 1497 1496 1498 1500 1501 1502 1507 1510 1513 1513 1515 1516 1517 1518 1518 1519 1520 1520 1521 1521 1522 1523 1523 1524 1524 1525 1526 1526 1527 1527 1528 1528 1528 1529 1529 1530 1531 1532 1532 1533 1535 1536
1507 1507 1512 1516 1510 1500 1496 1496 1496 1497 1501 1504 1504 1509 1513 1515 1515 1516 1517 1519 1519 1520 1520 1521 1522 1522 1523 1524 1524 1525 1526 1526 1527 1528 1528 1528 1529 1529 1529 1530 1530 1530 1530 1531 1532 1533 1534 1535 1536
1508 1509 1518 1520 1509 1499 1497 1497 1498 1501 1504 1506 1507 1510 1515 1517 1516 1517 1518 1520 1521 1521 1522 1523 1524 1524 1525 1525 1526 1527 1527 1528 1528 1529 1529 1530 1530 1531 1531 1531 1531 1531 1531 1532 1533 1533 1535 1536 1537
1509 1512 1517 1514 1509 1503 1499 1498 1499 1502 1505 1507 1507 1511 1516 1518 1518 1519 1520 1521 1522 1523 1524 1525 1525 1526 1527 1527 1528 1528 1529 1529 1530 1530 1530 1531 1532 1532 1532 1532 1532 1532 1532 1533 1534 1535 1536 1537 1538
1507 1511 1515 1512 1509 1505 1499 1499 1501 1502 1506 1508 1509 1511 1515 1518 1519 1520 1521 1523 1524 1524 1525 1526 1527 1527 1528 1529 1529 1530 1530 1530 1531 1531 1532 1532 1533 1533 1533 1533 1533 1533 1533 1534 1535 1536 1537 1538 1539
1507 1514 1518 1511 1507 1504 1499 1500 1503 1504 1506 1508 1509 1510 1513 1517 1519 1521 1522 1523 1524 1525 1526 1527 1528 1528 1529 1530 1531 1531 1532 1532 1532 1532 1533 1533 1533 1534 1534 1534 1534 1533 1534 1535 1536 1537 1537 1538 1539
1505 1515 1510 1501 1499 1500 1500 1500 1502 1506 1508 1510 1511 1513 1515 1517 1519 1520 1522 1523 1524 1526 1527 1528 1528 1529 1530 1531 1532 1532 1532 1533 1533 1533 1533 1534 1534 1534 1535 1535 1535 1535 1535 1536 1537 1537 1538 1539 1539
1502 1506 1500 1497 1497 1499 1500 1502 1503 1506 1510 1510 1511 1513 1516 1518 1520 1521 1522 1523 1524 1526 1527 1528 1529 1530 1531 1531 1532 1532 1533 1533 1534 1534 1534 1534 1535 1535 1535 1536 1536 1536 1536 1537 1537 1538 1538 1539 1539
1500 1499 1498 1497 1498 1498 1499 1502 1505 1506 1508 1510 1511 1513 1516 1518 1520 1521 1522 1523 1525 1526 1527 1528 1529 1530 1531 1531 1532 1533 1533 1534 1534 1534 1535 1535 1535 1536 1536 1536 1537 1537 1537 1537 1537 1538 1538 1538 1539
1499 1499 1497 1497 1497 1497 1498 1501 1504 1507 1509 1511 1514 1515 1517 1519 1520 1522 1523 1524 1525 1526 1527 1528 1529 1530 1531 1532 1532 1533 1534 1534 1535 1535 1535 1536 1536 1536 1537 1537 1537 1537 1537 1538 1538 1538 1538 1538 1539
1500 1498 1497 1497 1497 1498 1500 1503 1505 1510 1510 1512 1515 1516 1518 1519 1520 1522 1523 1524 1525 1526 1527 1528 1529 1530 1531 1532 1533 1533 1534 1535 1535 1535 1536 1536 1536 1536 1537 1537 1537 1537 1538 1538 1538 1538 1538 1538 1538
1498 1500 1500 1497 1497 1500 1501 1508 1508 1509 1511 1513 1515 1516 1518 1519 1520 1521 1522 1523 1525 1526 1527 1528 1529 1530 1531 1532 1533 1534 1534 1535 1535 1535 1536 1536 1536 1536 1537 1537 1537 1537 1538 1538 1538 1538 1538 1538 1538
1500 1506 1510 1501 1498 1499 1505 1519 1511 1511 1511 1514 1515 1517 1517 1518 1520 1521 1522 1524 1525 1526 1527 1528 1529 1530 1531 1532 1533 1533 1534 1535 1535 1535 1535 1536 1536 1536 1536 1536 1537 1537 1537 1537 1537 1537 1537 1537 1537
1509 1516 1513 1504 1497 1498 1505 1515 1511 1511 1512 1514 1515 1516 1517 1518 1520 1521 1522 1523 1524 1526 1527 1528 1529 1530 1531 1531 1532 1533 1533 1534 1534 1535 1535 1535 1535 1535 1535 1536 1536 1536 1536 1536 1536 1536 1536 1536 1536
1517 1514 1511 1508 1500 1499 1505 1510 1508 1509 1510 1513 1514 1516 1517 1518 1518 1519 1521 1522 1524 1525 1526 1527 1528 1529 1530 1531 1531 1532 1533 1533 1534 1534 1534 1534 1535 1535 1535 1535 1535 1535 1535 1535 1535 1535 1535 1535 1535
1502 1507 1509 1504 1496 1502 1506 1508 1508 1509 1510 1512 1513 1514 1515 1516 1518 1519 1520 1522 1523 1524 1525 1526 1527 1528 1529 1529 1530 1530 1531 1532 1532 1533 1533 1533 1533 1533 1533 1533 1533 1533 1533 1534 1534 1534 1534 1534 1534
1498 1507 1507 1502 1497 1502 1508 1509 1507 1508 1509 1510 1511 1512 1513 1515 1517 1518 1519 1520 1521 1522 1523 1524 1525 1527 1528 1529 1529 1530 1530 1531 1531 1531 1531 1532 1532 1532 1532 1532 1532 1532 1532 1532 1532 1532 1532 1532 1533
1499 1504 1504 1504 1500 1501 1508 1516 1511 1509 1509 1510 1511 1511 1512 1513 1515 1516 1518 1519 1520 1521 1522 1523 1524 1525 1526 1528 1528 1529 1529 1529 1530 1530 1530 1530 1530 1530 1530 1530 1530 1530 1530 1530 1530 1531 1531 1530 1531
1502 1491 1493 1496 1508 1519 1514 1533 1518 1511 1510 1509 1509 1510 1510 1511 1513 1514 1515 1517 1518 1519 1521 1522 1523 1524 1525 1526 1527 1527 1527 1527 1527 1528 1528 1529 1529 1529 1529 1528 1528 1528 1528 1528 1528 1529 1529 1529 1528
1490 1484 1488 1494 1507 1518 1517 1529 1524 1511 1512 1509 1507 1507 1507 1508 1510 1512 1513 1514 1516 1518 1519 1520 1521 1522 1523 1524 1525 1525 1525 1526 1526 1527 1527 1527 1527 1527 1527 1527 1526 1526 1526 1526 1526 1526 1527 1527 1527
1481 1487 1493 1502 1514 1532 1523 1528 1528 1515 1508 1505 1505 1505 1505 1507 1508 1510 1512 1513 1514 1516 1517 1518 1519 1520 1521 1522 1522 1523 1523 1524 1525 1525 1525 1525 1525 1525 1524 1524 1524 1524 1524 1524 1524 1524 1524 1524 1524
1485 1505 1526 1530 1539 1538 1521 1524 1522 1504 1500 1499 1500 1501 1502 1504 1506 1508 1509 1511 1512 1513 1515 1515 1516 1517 1519 1519 1520 1520 1521 1522 1522 1523 1523 1523 1523 1522 1522 1522 1522 1522 1522 1522 1522 1521 1521 1521 1521
1487 1500 1526 1538 1543 1537 1524 1527 1513 1498 1497 1496 1496 1498 1500 1503 1504 1505 1506 1508 1509 1511 1512 1513 1514 1515 1516 1517 1517 1518 1519 1520 1520 1520 1520 1521 1521 1520 1520 1520 1519 1519 1519 1519 1519 1519 1519 1518 1518
1487 1495 1497 1517 1526 1538 1532 1519 1506 1497 1496 1497 1497 1498 1499 1501 1503 1504 1505 1506 1508 1509 1510 1511 1512 1513 1513 1514 1515 1516 1517 1517 1517 1518 1518 1518 1518 1518 1517 1517 1517 1517 1516 1516 1516 1516 1515 1516 1515
1478 1485 1502 1518 1534 1542 1534 1526 1521 1505 1500 1498 1498 1499 1500 1500 1502 1503 1504 1505 1506 1507 1508 1510 1510 1511 1511 1512 1513 1514 1514 1515 1515 1515 1515 1515 1515 1515 1515 1514 1514 1514 1514 1513 1513 1513 1513 1513 1513
1484 1489 1500 1514 1520 1537 1543 1530 1501 1499 1497 1497 1497 1498 1498 1499 1500 1501 1503 1504 1505 1506 1507 1507 1508 1509 1509 1510 1510 1511 1512 1512 1512 1513 1513 1513 1512 1512 1512 1511 1511 1511 1511 1510 1510 1510 1510 1510 1509
1478 1486 1497 1514 1520 1524 1531 1525 1492 1492 1493 1494 1495 1497 1498 1498 1500 1501 1502 1503 1503 1504 1505 1506 1506 1507 1507 1507 1508 1508 1509 1509 1510 1510 1510 1510 1510 1509 1509 1509 1508 1508 1507 1507 1506 1506 1506 1506 1506